Lid_Strength_Index
-1 -1 -1 0 1 1 1 0 -0 -0 -0 -0 -0 -0 0 -0 -0 -0 -0 -0 -0 -0 0 -0 -1 -0 -0 -0 0 -0 -1 -1
-0 -1 -1 -1 -1 1 1 0 0 0 -0 0 0 0 -0 -0 -0 -0 -0 -0 0 -0 0 -0 -0 -0 0 0 0 -0 -1 -1
-0 -0 -1 -1 -1 -1 -0 -0 0 0 -0 0 1 -1 -1 -1 -0 0 0 1 1 0 0 1 1 1 0 0 0 -1 -1 -1
-0 -0 -0 -1 -1 -1 -1 -1 -1 -1 -1 -1 -1 -1 -1 -1 -0 0 0 1 1 1 1 1 1 -1 -1 -0 -1 -1 -1 -1
-0 -0 -0 -0 -0 -1 -1 -1 -1 -1 -1 -1 -1 -1 -1 -1 -1 -1 -1 -0 -1 -1 -1 -1 -1 -1 -1 -1 -1 -1 -1 -1
0 -0 -0 -0 -1 -0 -0 -0 -0 -0 -1 -1 -1 -0 -0 -0 -0 -0 -1 -1 -1 -1 -1 -1 -1 -1 -1 -1 -1 -1 -1 -1
0 -0 -0 -0 -0 -0 -0 -0 1 -0 -0 -0 -1 -0 -0 -0 -0 -1 -1 -1 -0 -0 -0 -0 -0 -0 -1 -1 -1 -1 -1 -1
0 3 5 1 -0 -0 1 1 1 1 1 0 -0 -0 -0 -0 -0 -0 -0 -1 -1 -1 -0 -0 0 -0 1 -0 -0 -1 -1 -1
4 4 6 6 5 4 2 3 3 4 3 3 3 3 3 1 -0 0 -0 -1 -0 -1 0 -0 0 0 0 0 0 -0 -1 -1
7 7 8 8 7 4 4 4 4 4 4 4 4 3 3 3 2 2 2 1 -0 -0 0 1 1 1 1 0 0 -0 -0 -1
8 8 9 8 6 6 6 6 6 5 5 5 5 5 5 4 4 3 4 2 2 1 1 1 1 1 1 1 0 0 0 -0
10 10 10 11 9 7 7 6 6 6 6 4 4 4 4 4 3 3 3 3 2 1 1 1 1 1 1 1 1 0 -0 0
9 10 10 11 9 9 7 7 6 5 5 4 4 3 3 4 4 4 3 3 3 2 2 1 2 1 2 2 2 1 1 1
9 10 11 10 10 9 9 8 6 5 5 5 5 4 4 4 4 4 4 4 3 3 2 2 2 1 3 3 5 3 2 1
9 10 10 10 10 9 9 8 7 7 6 6 6 5 5 5 5 5 5 5 6 6 4 3 2 2 1 3 6 7 4 2
8 9 10 10 10 10 9 10 10 9 8 7 7 6 5 6 5 5 6 6 6 6 5 5 4 2 2 1 1 2 5 6
10 9 10 10 10 9 10 11 10 10 9 8 8 7 7 7 7 7 7 7 7 7 6 5 5 5 2 2 2 2 2 5
9 10 11 10 10 10 11 11 11 11 11 11 10 9 9 9 8 8 8 7 8 8 8 7 6 4 3 2 3 3 4 4
10 11 12 11 10 10 11 11 11 12 12 12 11 11 10 10 10 10 9 9 8 8 8 7 6 6 4 3 2 2 2 3
11 11 11 11 11 11 11 11 11 12 12 12 12 12 11 10 10 10 10 10 9 9 9 8 6 5 4 3 2 1 1 2